Weather History for LKKV - November, 2012

Change the Weather History Date:

Wednesday, November 28, 2012

  Actual Average Record
Temperature  
Mean Temperature 40 °F -  
Max Temperature 41 °F - - ()
Min Temperature 39 °F - - ()
Degree Days  
Heating Degree Days 25    
Moisture  
Dew Point 40 °F    
Average Humidity 99    
Maximum Humidity 100    
Minimum Humidity 93    
Precipitation  
Precipitation 0.00 in - - ()
Sea Level Pressure  
Sea Level Pressure 29.52 in    
Wind  
Wind Speed 4 mph ()    
Max Wind Speed 9 mph    
Max Gust Speed -    
Visibility 2.2 miles    
Events Fog , Rain    
T = Trace of Precipitation, MM = Missing Value Source: Averaged Metar Reports

Daily Weather History Graph

Daily Weather History Graph

Search for Another Location

Airport or City:

Trip Planner

Search our weather history database for the weather conditions in past years. The results will help you decide how hot, cold, wet, or windy it might be!

Date:

Astronomy

Nov. 28, 2012 Rise Set
Actual Time 7:42 AM CET 4:10 PM CET
Civil Twilight 7:04 AM CET 4:47 PM CET
Nautical Twilight 6:24 AM CET 5:28 PM CET
Astronomical Twilight 5:45 AM CET 6:07 PM CET
Moon 4:12 PM CET (11/28) 7:24 AM CET (11/28)
Length of Visible Light 9h 42m
Length of Day
8h 28m
Full, 100% of the Moon is Illuminated
Nov 28
Full
Nov 28
Full
Dec 6
Last Quarter
Dec 13
New
Dec 20
First Quarter

Hourly Weather History & Observations

Time (CET) Temp. Windchill Dew Point Humidity Pressure Visibility Wind Dir Wind Speed Gust Speed Precip Events Conditions
12:00 AM 39.2 °F 35.9 °F 39.2 °F 100% 29.65 in 0.2 mi North 4.6 mph - N/A Fog Fog
1:00 AM 39.2 °F 35.9 °F 39.2 °F 100% 29.62 in 0.4 mi ENE 4.6 mph - N/A Fog Fog
2:00 AM 39.2 °F 33.0 °F 39.2 °F 100% 29.62 in 0.6 mi East 9.2 mph - N/A Fog Fog
3:00 AM 39.2 °F 35.9 °F 39.2 °F 100% 29.62 in 4.3 mi ENE 4.6 mph - N/A   Overcast
4:00 AM 39.2 °F 37.0 °F 39.2 °F 100% 29.59 in - NE 3.5 mph - N/A   Overcast
5:00 AM 39.2 °F 37.0 °F 39.2 °F 100% 29.59 in 1.3 mi North 3.5 mph - N/A   Overcast
6:00 AM 39.2 °F 35.9 °F 39.2 °F 100% 29.56 in 3.1 mi NE 4.6 mph - N/A Rain Light Rain
6:30 AM 39.2 °F - 39.2 °F 100% 29.56 in 3.1 mi ENE 2.3 mph - N/A Rain Light Rain
7:00 AM 39.2 °F - 39.2 °F 100% 29.56 in 2.8 mi NE 2.3 mph - N/A   Light Drizzle
7:23 AM 39.2 °F - 39.2 °F 100% 29.56 in 1.6 mi East 2.3 mph - N/A   Light Drizzle
7:30 AM 39.2 °F - 39.2 °F 100% 29.56 in 1.2 mi East 2.3 mph - N/A   Light Drizzle
8:00 AM 39.2 °F - 39.2 °F 100% 29.56 in 0.9 mi WNW 1.2 mph - N/A Fog Light Drizzle
8:10 AM 41.0 °F 39.0 °F 39.2 °F 93% 29.56 in 0.3 mi WNW 3.5 mph - N/A Fog Light Drizzle
8:17 AM 39.2 °F 37.0 °F 39.2 °F 100% 29.56 in 0.2 mi WNW 3.5 mph - N/A Fog Light Drizzle
8:20 AM 39.2 °F 35.9 °F 39.2 °F 100% 29.56 in 0.2 mi NW 4.6 mph - N/A Fog Drizzle
8:30 AM 39.2 °F 37.0 °F 39.2 °F 100% 29.56 in 0.2 mi NW 3.5 mph - N/A Fog Drizzle
9:00 AM 41.0 °F 38.0 °F 39.2 °F 93% 29.56 in 0.9 mi NNE 4.6 mph - N/A   Light Drizzle
9:30 AM 41.0 °F - 39.2 °F 93% 29.56 in 0.8 mi Variable 2.3 mph - N/A   Light Drizzle
10:00 AM 41.0 °F 39.0 °F 41.0 °F 100% 29.56 in 0.8 mi NNE 3.5 mph - N/A   Light Drizzle
10:30 AM 41.0 °F 38.0 °F 41.0 °F 100% 29.53 in 1.1 mi NE 4.6 mph - N/A   Light Drizzle
11:00 AM 41.0 °F 39.0 °F 41.0 °F 100% 29.53 in 1.1 mi ENE 3.5 mph - N/A   Light Drizzle
11:30 AM 41.0 °F - 41.0 °F 100% 29.53 in 0.7 mi Variable 2.3 mph - N/A   Light Drizzle
12:00 PM 41.0 °F - 41.0 °F 100% 29.53 in 0.9 mi Variable 2.3 mph - N/A   Light Drizzle
12:24 PM 41.0 °F 39.0 °F 41.0 °F 100% 29.50 in 0.5 mi North 3.5 mph - N/A Fog Light Drizzle
12:30 PM 41.0 °F 39.0 °F 41.0 °F 100% 29.50 in 0.4 mi North 3.5 mph - N/A Fog Light Drizzle
1:00 PM 41.0 °F 39.0 °F 41.0 °F 100% 29.50 in 1.2 mi NNE 3.5 mph - N/A   Light Drizzle
1:30 PM 41.0 °F 39.0 °F 41.0 °F 100% 29.50 in 1.2 mi NNE 3.5 mph - N/A   Light Drizzle
2:00 PM 41.0 °F 38.0 °F 41.0 °F 100% 29.50 in 1.2 mi NE 4.6 mph - N/A   Light Drizzle
2:30 PM 41.0 °F 37.1 °F 41.0 °F 100% 29.50 in 2.2 mi NNE 5.8 mph - N/A   Light Drizzle
3:00 PM 41.0 °F 37.1 °F 41.0 °F 100% 29.47 in 3.1 mi NNE 5.8 mph - N/A   Light Drizzle
3:30 PM 41.0 °F 39.0 °F 41.0 °F 100% 29.47 in 3.1 mi Variable 3.5 mph - N/A   Light Drizzle
4:00 PM 41.0 °F 37.1 °F 41.0 °F 100% 29.47 in 3.1 mi NE 5.8 mph - N/A   Light Drizzle
4:30 PM 41.0 °F 37.1 °F 41.0 °F 100% 29.47 in 3.7 mi NNE 5.8 mph - N/A   Light Drizzle
5:00 PM 41.0 °F 36.4 °F 41.0 °F 100% 29.47 in 3.1 mi NE 6.9 mph - N/A   Light Drizzle
5:30 PM 41.0 °F 36.4 °F 39.2 °F 93% 29.44 in 3.7 mi NE 6.9 mph - N/A   Light Drizzle
6:00 PM 41.0 °F 35.8 °F 39.2 °F 93% 29.47 in 4.3 mi NNE 8.1 mph - N/A   Light Drizzle
6:30 PM 41.0 °F 36.4 °F 39.2 °F 93% 29.44 in 4.3 mi NE 6.9 mph - N/A   Light Drizzle
7:00 PM 41.0 °F 35.8 °F 39.2 °F 93% 29.44 in 5.0 mi NE 8.1 mph - N/A   Overcast
7:30 PM 41.0 °F 36.4 °F 39.2 °F 93% 29.42 in 4.3 mi NE 6.9 mph - N/A   Light Drizzle
8:00 PM 39.2 °F 33.6 °F 39.2 °F 100% 29.42 in 5.0 mi NNE 8.1 mph - N/A   Light Drizzle
9:00 PM 39.2 °F 35.0 °F 39.2 °F 100% 29.42 in 5.0 mi NNE 5.8 mph - N/A   Light Drizzle
10:00 PM 39.2 °F 34.2 °F 39.2 °F 100% 29.42 in 5.6 mi NNE 6.9 mph - N/A   Light Drizzle
11:00 PM 39.2 °F 35.9 °F 37.4 °F 93% 29.39 in 6.2 mi NNE 4.6 mph - N/A   Light Drizzle